Location: Babice
(50.3480°N, 22.9363°E)
Time: 12:38:03
(UTC+00:00)

Cosmos 1656 - Pass Details

Date: 14 July 2020
Orbit: 800 x 848 km, 71.1° (Epoch: 07 August)

Event Time Altitude Azimuth Distance (km) Brightness Sun altitude
Rises 00:45:01 0° 325° (NW) 3,319 7.1 -12.4°
Reaches altitude 10° 00:47:37 10° 316° (NW) 2,384 6.2 -12.2°
Maximum altitude 00:52:26 33° 254° (WSW) 1,318 4.3 -11.8°
Enters shadow 00:56:27 14° 196° (SSW) 2,115 5.2 -11.5°
